Regional Weather Roundup
Issued by NWS

Home | Current Version | Previous Version | Graphics & Text | Print | Product List | Glossary On
Versions: 1 2 3 4 5 6 7 8 9 10 11 12 13 14 15 16 17 18 19 20 21 22 23 24 25 26 27 28
000
ASUS45 KTFX 231110
RWRMT
MONTANA REGIONAL WEATHER ROUNDUP
NATIONAL WEATHER SERVICE GREAT FALLS MT
400 AM MST MON JAN 23 2017

NOTE: "FAIR" INDICATES FEW OR NO CLOUDS BELOW 12000 FEET WITH NO
SIGNIFICANT WEATHER AND/OR OBSTRUCTIONS TO VISIBILITY.

MTZ001>007-043-231200-
WEST OF THE DIVIDE

CITY           SKY/WX    TMP DP  RH WIND       PRES   REMARKS
KALISPELL      LGT SNOW  31  23  72 N15       29.64R WCI  20
MISSOULA       CLOUDY    26  26 100 CALM      29.65R FOG
BUTTE          CLOUDY     6   2  83 E7        29.60F WCI  -6
MULLAN PASS    CLOUDY    24  21  88 CALM      29.54R FOG
ANACONDA         N/A     19  12  73 SW6       29.60R WCI  11
DEER LODGE       N/A     19  16  86 E3        29.62F
EUREKA           N/A     21  19  93 CALM      29.68S
HAMILTON         N/A     25  21  86 NW5       29.62R
PLAINS           N/A     25  21  84 CALM      29.68
RONAN            N/A     25  23  91 CALM      29.70S
$$

MTZ008-052>055-231200-
SOUTHWEST MONTANA

CITY           SKY/WX    TMP DP  RH WIND       PRES   REMARKS
BOZEMAN        CLOUDY    11   9  92 S7        29.62F WCI   0
DILLON         CLOUDY   N/A N/A N/A SE10      29.57F
W YELLOWSTONE  FLURRIES  21  19  93 CALM      29.60F
ENNIS          CLEAR     23  18  80 SE6       29.62F WCI  16
$$

MTZ009-010-012-014-046-048-049-054-231200-
EAST SLOPES AND CENTRAL MONTANA

CITY           SKY/WX    TMP DP  RH WIND       PRES   REMARKS
CUT BANK       LGT SNOW  20  19  96 N9        29.70R FOG     WCI   9
GREAT FALLS    LGT SNOW  23  20  88 NW5       29.68F FOG
MALMSTROM AFB  LGT SNOW  24  24 100 NW3       29.70S FOG
HELENA         CLOUDY    25  20  81 W6        29.66S WCI  18
AUGUSTA        CLOUDY    19  19  98 N5        29.67R
BOWMANS CRNR   CLOUDY    19  18  96 CALM      29.65R
CHOTEAU          N/A     23  23 100 N7        29.70S FOG     WCI  15
CONRAD           N/A     23  23 100 NW7       29.74S WCI  15
POWER          LGT SNOW  21  20  96 NW6       29.68S WCI  14
RAYNESFORD     LGT SNOW  22  22  97 W5        29.67S
ULM            MOCLDY    22  22  98 MISG      29.69S
$$

MTZ011-013-016-021-045-047-050-051-231200-
NORTH CENTRAL MONTANA

CITY           SKY/WX    TMP DP  RH WIND       PRES   REMARKS
HAVRE          LGT SNOW  27  26  96 NE10      29.73S FOG     WCI  17
LEWISTOWN      FOG       22  20  92 W8        29.65S VSB 1/4 WCI  12
CHINOOK          N/A     27  27 100 NE3       29.75S
DENTON         SNOWSHWR  24  23  97 NW8       29.65R VSB 1/4 WCI  15
FORT BENTON      N/A    N/A N/A N/A MISG      29.73S
GEYSER         SNOWSHWR  22  21  96 CALM      29.65S FOG
GRASS RANGE    FOG       22  22  98 NE6       29.61F VSB 3/8 WCI  15
JUDITH GAP     SNOW      20  18  93 N13       29.62R VSB 3/8 WCI   7
ROY            FOG       22  21  96 MISG      29.66S VSB 3/8
STANFORD       FLURRIES  22  21  98 NW14      29.64R WCI   9
WINIFRED       FRZ RAIN  22  22  98 E8        29.66S VSB 1/2 WCI  13
$$

MTZ017>020-022>027-061-062-231200-
NORTHEAST MONTANA

CITY           SKY/WX    TMP DP  RH WIND       PRES   REMARKS
GLASGOW        CLOUDY    27  24  89 S8        29.74F WCI  19
JORDAN           N/A     24  21  88 SE8       29.73S WCI  15
SIDNEY         CLOUDY    28  24  85 S3        29.77F
WOLF POINT     CLOUDY    29  24  82 S5        29.77S
PLENTYWOOD       N/A     23  19  86 W3        29.76F
POPLAR           N/A     28  25  86 CALM      29.78S
SCOBEY           N/A     23  16  75 CALM      29.75S
$$

MTZ028>42-056>058-231200-
SOUTHCENTRAL AND SOUTHEAST MONTANA

CITY           SKY/WX    TMP DP  RH WIND       PRES   REMARKS
BAKER          FOG       20  18  92 SE15      29.72F VSB 1/2 WCI   6
BILLINGS       CLOUDY    19  17  92 NE6       29.62F WCI  11
LIVINGSTON     CLOUDY    18  14  84 CALM      29.60R
MILES CITY     FOG       23  20  88 E8        29.73R VSB 3/4 WCI  14
BIG TIMBER     CLEAR     23  18  80 NE3       29.63F
EKALAKA          N/A     22  15  74 SE6       29.66  WCI  15
FORSYTH          N/A     19  19 100 E5        29.70F VSB 1/4
HARLOWTON      MOCLDY    18  15  91 N8        29.62R WCI   7
LAUREL           N/A     19   9  65 CALM      29.64F
$$

REGIONAL REPORTS...DAKOTAS

CITY           SKY/WX    TMP DP  RH WIND       PRES   REMARKS
WILLISTON      CLOUDY    27  24  89 CALM      29.77S
MINOT          CLOUDY    28  22  78 NW9       29.76F WCI  19
DICKINSON      CLOUDY    24  19  81 CALM      29.73F
BEACH          CLOUDY    23  23 100 E6        29.77F WCI  16
CROSBY         CLOUDY    23  23 100 NW3       29.78F
TIOGA          CLOUDY    25  25 100 NW5       29.75F
WATFORD CITY   CLOUDY    27  25  93 W3        29.76F
BISMARCK       CLOUDY    30  23  75 W5        29.81S
GRAND FORKS    CLOUDY    33  27  78 W8        29.78R WCI  26
FARGO          CLOUDY    35  27  72 W9        29.81R WCI  28
BUFFALO SD       N/A     18  14  84 SE5       29.64F
RAPID CITY     CLOUDY    22  20  92 CALM      29.69F
$$

REGIONAL REPORTS...WYOMING/IDAHO/WASHINGTON

CITY           SKY/WX    TMP DP  RH WIND       PRES   REMARKS
GILLETTE       CLOUDY    32  26  78 CALM      29.59S
SHERIDAN       CLOUDY    20  17  88 MISG      29.61F
BUFFALO WY     CLOUDY    33  17  51 CALM      29.59F
CODY           CLOUDY    18  14  84 W7        29.59F WCI   9
YELLOWSTONE LA   N/A     10   8  92 CALM      29.60F
IDAHO FALLS    CLOUDY    29  28  96 CALM      29.59F
SALMON         CLOUDY     7 N/A N/A CALM      29.66R
BOISE          CLOUDY    28  26  92 CALM      29.60F
SPOKANE        FOG       31  30  96 S5        29.66R VSB 1/4
$$

REGIONAL REPORTS...ALBERTA

CITY           SKY/WX    TMP DP  RH WIND       PRES   REMARKS
EDMONTON       CLOUDY    14   7  73 NE2       29.86F VSB 3/4
CALGARY        FOG       19  19 100 E3        29.75S VSB 1
LETHBRIDGE     FRZ RAIN  19 N/A N/A NE7       29.78R VSB 1/4 WCI  10
MEDICINE HAT   CLOUDY    21  19  93 N9        29.80S WCI  11
WATERTON GATE    N/A     21  19  93 N2          N/A
CARDSTON         N/A     21  19  93 N1          N/A
MILK RIVER       N/A     19  18  93 N8          N/A  WCI   9
ONEFOUR          N/A     19  18  93 NW8         N/A  WCI   9
$$

REGIONAL REPORTS...SASKATCHEWAN

CITY           SKY/WX    TMP DP  RH WIND       PRES   REMARKS
SWIFT CURRENT  CLOUDY    16  14  93 NW8       29.73F WCI   5
REGINA         CLOUDY    18  16  93 NW12      29.75F WCI   5
SASKATOON      FLURRIES  14  10  85 N10       29.82S WCI   1
VAL MARIE        N/A     23  19  86 N10         N/A  WCI  12
ASSINIBOIA       N/A     14  12  92 N1          N/A
$$




USA.gov is the U.S. government's official web portal to all federal, state and local government web resources and services.